Location: River House Observatory
(37.8577°N, 76.3548°W)
Time: 20:08:58
(UTC-05:00)

Hubble Space Telescope - Pass Details

Date: 27 January 2018
Orbit: 537 x 541 km, 28.5° (Epoch: 20 February)

Event Time Altitude Azimuth Distance (km) Brightness Sun altitude
Rises 18:11:09 0° 239° (WSW) 2,668 6.1 -9.7°
Reaches altitude 10° 18:13:49 10° 223° (SW) 1,778 4.4 -10.2°
Maximum altitude 18:16:55 21° 174° (S) 1,243 2.7 -10.8°
Drops below altitude 10° 18:20:00 10° 125° (SE) 1,779 3.0 -11.4°
Enters shadow 18:20:32 - 121° (ESE) 1,942 3.2 -11.5°
